Snow/Ice From: 16-12-2017 16:00 Until: 17-12-2017 16:00 warning for: Snow/Ice Level: Yellow info button

Although rather usual in this region, locally or potentially dangerous phenomena are expected. (such as local winds, summer thunderstorms, rising streams or high waves) Be aware and pay attention to the latest weather updates, especially if you carry out activities exposed to weather or close to a stream or shoreline. 


Meteo18 Weather Cam more information Meteo18 Weather Cam


Thunder radar more information blitzortung!


warning for Snow/Ice more information rain snow radar


Visit our other weather sites:

Template documentation
and downloads

And another site



Weather Underground History page Text

Daily Summary for March 15, 2017 Units:  English    Metric   Both
« Previous Day
Next Day »
Daily Weekly Monthly Yearly Custom
  High: Low: Average:
Temperature: 54.7 °F 43.3 °F 48 °F
Dew Point: 47.7 °F 41 °F 44.2 °F
Humidity: 95 % 75 % 87 %
Wind Speed: 12 mph 0 mph 3.7 mph
Wind Gust: 15 mph - -
Wind:- - East
Pressure: 30.5 in 30.4 in -
Precipitation: 0 in    
Historical Graphs
 
 
Tabular Data for March 15, 2017
Time Temperature Dew Point Pressure Wind Wind Speed Wind Gust Humidity Rainfall Rate (Hourly)
00:02 47.1 °F 41 °F 30.5 in North 1 mph 4 mph 79 % 0 in
00:07 46.9 °F 41.2 °F 30.5 in Calm   4 mph 80 % 0 in
00:12 46.8 °F 41.2 °F 30.5 in NW 1 mph 3 mph 81 % 0 in
00:17 46.8 °F 41.5 °F 30.5 in Calm   3 mph 82 % 0 in
00:22 46.8 °F 41.9 °F 30.5 in Calm   3 mph 83 % 0 in
00:32 46.6 °F 42.1 °F 30.5 in Calm   2 mph 84 % 0 in
00:37 46.4 °F 42.1 °F 30.5 in Calm   1 mph 85 % 0 in
00:42 46 °F 41.7 °F 30.5 in NNW 1 mph 1 mph 85 % 0 in
00:52 46 °F 42.4 °F 30.5 in NNW 1 mph 7 mph 87 % 0 in
00:57 46 °F 42.4 °F 30.5 in NNE 2 mph 7 mph 87 % 0 in
01:02 45.9 °F 42.3 °F 30.5 in NNE 1 mph 7 mph 87 % 0 in
01:12 45.5 °F 42.1 °F 30.5 in NNE 2 mph 6 mph 88 % 0 in
01:17 45.3 °F 42.3 °F 30.5 in NE 3 mph 5 mph 89 % 0 in
01:27 45.9 °F 42.8 °F 30.5 in NNE 1 mph 6 mph 89 % 0 in
01:32 45.9 °F 42.8 °F 30.5 in NNE 4 mph 7 mph 89 % 0 in
01:42 45.3 °F 42.3 °F 30.5 in NNE 2 mph 7 mph 89 % 0 in
01:47 45.3 °F 42.6 °F 30.5 in NNE 1 mph 7 mph 90 % 0 in
01:52 45.3 °F 42.6 °F 30.5 in NE 2 mph 7 mph 90 % 0 in
01:57 45.1 °F 42.4 °F 30.5 in NW 2 mph 7 mph 90 % 0 in
02:02 45 °F 42.3 °F 30.5 in Calm   7 mph 90 % 0 in
02:07 45 °F 42.4 °F 30.5 in NNE 2 mph 5 mph 91 % 0 in
02:12 44.8 °F 42.3 °F 30.5 in North 1 mph 5 mph 91 % 0 in
02:17 44.6 °F 42.1 °F 30.5 in NE 3 mph 6 mph 91 % 0 in
02:22 44.8 °F 42.3 °F 30.5 in North 4 mph 7 mph 91 % 0 in
02:27 44.8 °F 42.3 °F 30.5 in NNW 3 mph 7 mph 91 % 0 in
02:32 44.8 °F 42.6 °F 30.5 in NNW 4 mph 7 mph 92 % 0 in
02:37 44.8 °F 42.3 °F 30.5 in NW 4 mph 7 mph 91 % 0 in
02:42 44.6 °F 42.4 °F 30.5 in NW 4 mph 7 mph 92 % 0 in
02:47 44.4 °F 42.3 °F 30.5 in NE 4 mph 8 mph 92 % 0 in
02:57 44.1 °F 41.9 °F 30.5 in North 5 mph 8 mph 92 % 0 in
03:02 44.1 °F 41.9 °F 30.5 in North 5 mph 7 mph 92 % 0 in
03:07 44.1 °F 42.1 °F 30.5 in NE 4 mph 9 mph 93 % 0 in
03:12 43.9 °F 41.9 °F 30.5 in NNE 3 mph 9 mph 93 % 0 in
03:17 43.9 °F 41.9 °F 30.5 in NW 5 mph 8 mph 93 % 0 in
03:22 43.9 °F 41.9 °F 30.5 in NNE 2 mph 8 mph 93 % 0 in
03:27 44.1 °F 42.1 °F 30.5 in NNE 2 mph 9 mph 93 % 0 in
03:32 43.9 °F 41.9 °F 30.5 in NNE 3 mph 9 mph 93 % 0 in
03:42 43.5 °F 41.7 °F 30.5 in NNE 4 mph 7 mph 93 % 0 in
03:47 43.5 °F 41.7 °F 30.5 in ENE 1 mph 7 mph 93 % 0 in
03:52 43.3 °F 41.5 °F 30.5 in NNW 3 mph 7 mph 93 % 0 in
03:57 43.3 °F 41.7 °F 30.5 in NNE 5 mph 8 mph 94 % 0 in
04:02 43.3 °F 41.7 °F 30.5 in NNW 1 mph 8 mph 94 % 0 in
04:07 43.3 °F 41.7 °F 30.5 in NNW 2 mph 8 mph 94 % 0 in
04:17 43.5 °F 41.9 °F 30.5 in NE 5 mph 9 mph 94 % 0 in
04:22 43.5 °F 41.9 °F 30.5 in NNE 3 mph 9 mph 94 % 0 in
04:32 43.5 °F 41.9 °F 30.5 in NE 6 mph 7 mph 94 % 0 in
04:37 43.5 °F 41.9 °F 30.5 in North 3 mph 7 mph 94 % 0 in
04:42 43.5 °F 41.9 °F 30.5 in NNE 4 mph 10 mph 94 % 0 in
04:47 43.5 °F 41.9 °F 30.5 in NNE 4 mph 10 mph 94 % 0 in
04:52 43.5 °F 42.3 °F 30.5 in NNE 10 mph 10 mph 95 % 0 in
04:57 43.5 °F 41.9 °F 30.5 in East 2 mph 11 mph 94 % 0 in
05:02 43.5 °F 42.3 °F 30.5 in NNE 2 mph 11 mph 95 % 0 in
05:12 43.5 °F 42.3 °F 30.5 in NNE 3 mph 13 mph 95 % 0 in
05:17 43.5 °F 42.3 °F 30.5 in NNE 2 mph 13 mph 95 % 0 in
05:22 43.9 °F 42.6 °F 30.5 in WNW 4 mph 10 mph 95 % 0 in
05:27 43.9 °F 42.6 °F 30.5 in NNW 5 mph 8 mph 95 % 0 in
05:32 44.1 °F 42.8 °F 30.5 in NW 2 mph 9 mph 95 % 0 in
05:42 44.2 °F 43 °F 30.5 in NNW 3 mph 10 mph 95 % 0 in
05:47 44.2 °F 43 °F 30.5 in NNE 2 mph 10 mph 95 % 0 in
05:52 44.4 °F 43.2 °F 30.5 in NNE 1 mph 8 mph 95 % 0 in
05:57 44.4 °F 43.2 °F 30.5 in North 3 mph 7 mph 95 % 0 in
06:02 44.6 °F 43.3 °F 30.5 in Calm   6 mph 95 % 0 in
06:12 45 °F 43.7 °F 30.5 in NNE 3 mph 6 mph 95 % 0 in
06:17 45 °F 43.7 °F 30.5 in NNW 2 mph 7 mph 95 % 0 in
06:22 45 °F 43.7 °F 30.5 in NE 1 mph 7 mph 95 % 0 in
06:27 45.1 °F 43.9 °F 30.5 in NE 2 mph 7 mph 95 % 0 in
06:32 45.1 °F 43.5 °F 30.5 in North 2 mph 7 mph 94 % 0 in
06:37 45.1 °F 43.5 °F 30.5 in NW 1 mph 4 mph 94 % 0 in
06:42 45.1 °F 43.5 °F 30.5 in NW 2 mph 4 mph 94 % 0 in
06:52 45.1 °F 43.5 °F 30.5 in NNE 3 mph 5 mph 94 % 0 in
07:02 45.1 °F 43.5 °F 30.5 in North 1 mph 5 mph 94 % 0 in
07:12 45.3 °F 43.7 °F 30.5 in NNE 2 mph 4 mph 94 % 0 in
07:17 45.3 °F 43.7 °F 30.5 in NE 7 mph 7 mph 94 % 0 in
07:22 45.7 °F 44.1 °F 30.5 in NE 1 mph 3 mph 94 % 0 in
07:32 45.9 °F 44.2 °F 30.5 in NNE 6 mph 7 mph 94 % 0 in
07:42 46 °F 44.1 °F 30.5 in NNE 5 mph 7 mph 93 % 0 in
07:52 46 °F 44.1 °F 30.5 in NE 7 mph 8 mph 93 % 0 in
08:02 46.4 °F 44.2 °F 30.5 in NE 6 mph 10 mph 92 % 0 in
08:12 46.6 °F 44.4 °F 30.5 in NE 5 mph 10 mph 92 % 0 in
08:17 46.6 °F 44.4 °F 30.5 in NNE 1 mph 8 mph 92 % 0 in
08:22 46.8 °F 44.2 °F 30.5 in NNE 3 mph 7 mph 91 % 0 in
08:32 46.8 °F 44.2 °F 30.5 in NE 4 mph 7 mph 91 % 0 in
08:37 46.8 °F 44.2 °F 30.5 in ENE 2 mph 6 mph 91 % 0 in
08:42 46.9 °F 44.4 °F 30.5 in NNE 3 mph 6 mph 91 % 0 in
08:47 46.9 °F 44.4 °F 30.5 in NNE 3 mph 9 mph 91 % 0 in
08:52 46.9 °F 44.4 °F 30.5 in NE 8 mph 9 mph 91 % 0 in
08:57 47.1 °F 44.4 °F 30.5 in NE 3 mph 9 mph 90 % 0 in
09:02 47.1 °F 44.6 °F 30.5 in NNE 5 mph 10 mph 91 % 0 in
09:07 47.1 °F 44.4 °F 30.5 in NNE 5 mph 10 mph 90 % 0 in
09:12 47.5 °F 44.8 °F 30.5 in NNE 4 mph 10 mph 90 % 0 in
09:17 47.5 °F 44.8 °F 30.5 in NE 5 mph 8 mph 90 % 0 in
09:22 47.7 °F 45 °F 30.5 in NE 5 mph 8 mph 90 % 0 in
09:32 47.7 °F 44.6 °F 30.5 in NE 6 mph 9 mph 89 % 0 in
09:37 47.8 °F 44.8 °F 30.5 in ENE 5 mph 10 mph 89 % 0 in
09:42 47.8 °F 44.4 °F 30.5 in NNE 8 mph 11 mph 88 % 0 in
09:47 47.8 °F 44.2 °F 30.5 in NNE 10 mph 12 mph 87 % 0 in
09:52 47.8 °F 44.2 °F 30.5 in NNE 5 mph 13 mph 87 % 0 in
09:57 48 °F 44.6 °F 30.5 in NE 6 mph 13 mph 88 % 0 in
10:02 48 °F 44.4 °F 30.5 in NNE 8 mph 13 mph 87 % 0 in
10:12 48.2 °F 44.6 °F 30.5 in NE 5 mph 12 mph 87 % 0 in
10:17 48.4 °F 44.4 °F 30.5 in NNE 4 mph 12 mph 86 % 0 in
10:22 48.6 °F 44.8 °F 30.5 in NE 2 mph 11 mph 87 % 0 in
10:27 48.6 °F 44.6 °F 30.5 in ENE 8 mph 11 mph 86 % 0 in
10:32 48.7 °F 44.8 °F 30.5 in NE 3 mph 11 mph 86 % 0 in
10:42 48.7 °F 44.4 °F 30.5 in NNE 5 mph 10 mph 85 % 0 in
10:47 48.9 °F 44.6 °F 30.5 in NE 2 mph 10 mph 85 % 0 in
10:52 49.1 °F 44.8 °F 30.5 in NE 3 mph 11 mph 85 % 0 in
10:57 49.3 °F 45 °F 30.5 in NNE 4 mph 11 mph 85 % 0 in
11:02 49.1 °F 44.4 °F 30.5 in North 7 mph 11 mph 84 % 0 in
11:12 49.5 °F 44.8 °F 30.5 in ENE 3 mph 13 mph 84 % 0 in
11:17 49.3 °F 44.6 °F 30.5 in NE 4 mph 11 mph 84 % 0 in
11:22 49.3 °F 44.6 °F 30.5 in NE 4 mph 12 mph 84 % 0 in
11:27 49.1 °F 44.4 °F 30.5 in North 5 mph 12 mph 84 % 0 in
11:32 49.3 °F 44.6 °F 30.5 in North 4 mph 13 mph 84 % 0 in
11:42 49.5 °F 44.8 °F 30.5 in East 7 mph 11 mph 84 % 0 in
11:47 49.5 °F 45.1 °F 30.5 in ENE 3 mph 11 mph 85 % 0 in
11:52 49.5 °F 44.8 °F 30.5 in NE 6 mph 11 mph 84 % 0 in
11:57 49.3 °F 45 °F 30.5 in NE 10 mph 12 mph 85 % 0 in
12:02 49.1 °F 44.8 °F 30.5 in NNE 8 mph 12 mph 85 % 0 in
12:07 48.9 °F 44.6 °F 30.5 in North 5 mph 12 mph 85 % 0 in
12:12 48.9 °F 44.6 °F 30.5 in NE 12 mph 12 mph 85 % 0 in
12:17 48.7 °F 44.4 °F 30.5 in NNE 4 mph 12 mph 85 % 0 in
12:22 48.9 °F 45 °F 30.5 in NE 4 mph 14 mph 86 % 0 in
12:27 48.9 °F 45 °F 30.5 in North 6 mph 14 mph 86 % 0 in
12:32 48.9 °F 45 °F 30.5 in NNE 3 mph 14 mph 86 % 0 in
12:37 48.7 °F 44.4 °F 30.5 in NE 7 mph 10 mph 85 % 0 in
12:42 48.7 °F 44.8 °F 30.5 in NE 5 mph 12 mph 86 % 0 in
12:47 48.7 °F 44.8 °F 30.5 in NNE 1 mph 12 mph 86 % 0 in
12:52 48.9 °F 45.1 °F 30.5 in NNE 6 mph 11 mph 87 % 0 in
12:57 48.9 °F 45.1 °F 30.5 in NE 4 mph 9 mph 87 % 0 in
13:02 48.9 °F 45 °F 30.5 in NE 2 mph 9 mph 86 % 0 in
13:12 48.9 °F 45 °F 30.5 in NNE 5 mph 9 mph 86 % 0 in
13:17 48.9 °F 44.6 °F 30.5 in NNE 8 mph 11 mph 85 % 0 in
13:22 48.9 °F 44.6 °F 30.5 in NNW 6 mph 11 mph 85 % 0 in
13:27 48.9 °F 44.6 °F 30.5 in NE 7 mph 11 mph 85 % 0 in
13:37 48.9 °F 44.6 °F 30.5 in NNW 3 mph 15 mph 85 % 0 in
13:42 48.9 °F 44.6 °F 30.5 in North 3 mph 15 mph 85 % 0 in
13:47 48.9 °F 44.6 °F 30.5 in North 2 mph 15 mph 85 % 0 in
13:57 49.3 °F 44.6 °F 30.5 in NNE 9 mph 12 mph 84 % 0 in
14:02 49.5 °F 44.8 °F 30.5 in NE 4 mph 12 mph 84 % 0 in
14:07 49.6 °F 45 °F 30.5 in NE 8 mph 11 mph 84 % 0 in
14:12 49.6 °F 45 °F 30.5 in NNE 5 mph 11 mph 84 % 0 in
14:17 49.8 °F 44.8 °F 30.5 in NE 8 mph 10 mph 83 % 0 in
14:22 49.6 °F 44.8 °F 30.5 in ENE 7 mph 11 mph 83 % 0 in
14:27 49.8 °F 45.1 °F 30.5 in NNE 5 mph 11 mph 84 % 0 in
14:32 50.2 °F 45.1 °F 30.5 in ENE 2 mph 11 mph 83 % 0 in
14:37 50.2 °F 45 °F 30.5 in ENE 3 mph 11 mph 82 % 0 in
14:42 50.4 °F 45.3 °F 30.5 in NNE 4 mph 11 mph 83 % 0 in
14:47 50.5 °F 45.5 °F 30.5 in NE 4 mph 9 mph 83 % 0 in
14:57 50.7 °F 45.5 °F 30.5 in ENE 4 mph 9 mph 82 % 0 in
15:02 50.9 °F 45.7 °F 30.5 in ENE 8 mph 11 mph 82 % 0 in
15:07 51.1 °F 45.5 °F 30.5 in North 11 mph 11 mph 81 % 0 in
15:17 51.4 °F 45.9 °F 30.5 in NE 5 mph 12 mph 81 % 0 in
15:22 51.3 °F 45.7 °F 30.5 in ENE 5 mph 12 mph 81 % 0 in
15:32 51.4 °F 45.9 °F 30.5 in North 7 mph 13 mph 81 % 0 in
15:37 51.4 °F 45.5 °F 30.5 in NE 6 mph 13 mph 80 % 0 in
15:42 51.6 °F 45.7 °F 30.5 in East 2 mph 13 mph 80 % 0 in
15:47 52 °F 46.4 °F 30.5 in ENE 3 mph 11 mph 81 % 0 in
15:52 52.3 °F 46 °F 30.5 in NE 5 mph 11 mph 79 % 0 in
15:57 52.9 °F 46.9 °F 30.4 in East 4 mph 11 mph 80 % 0 in
16:02 52.7 °F 46.4 °F 30.4 in ENE 4 mph 11 mph 79 % 0 in
16:07 52.9 °F 46.6 °F 30.4 in NNE 6 mph 11 mph 79 % 0 in
16:12 52.9 °F 45.9 °F 30.4 in NE 4 mph 10 mph 77 % 0 in
16:17 53.1 °F 46 °F 30.4 in ENE 2 mph 9 mph 77 % 0 in
16:22 53.1 °F 46.4 °F 30.4 in ENE 4 mph 9 mph 78 % 0 in
16:27 53.2 °F 46.2 °F 30.4 in ENE 4 mph 8 mph 77 % 0 in
16:32 53.4 °F 46.8 °F 30.4 in NNE 3 mph 7 mph 78 % 0 in
16:37 53.6 °F 46.9 °F 30.4 in NNE 4 mph 7 mph 78 % 0 in
16:42 53.8 °F 46.8 °F 30.4 in NNE 5 mph 9 mph 77 % 0 in
16:47 54 °F 46.6 °F 30.4 in NE 6 mph 11 mph 76 % 0 in
16:52 54.1 °F 46.8 °F 30.4 in NNW 3 mph 11 mph 76 % 0 in
16:57 54.1 °F 46.8 °F 30.4 in ENE 1 mph 9 mph 76 % 0 in
17:02 54.3 °F 46.9 °F 30.4 in NNW 5 mph 8 mph 76 % 0 in
17:07 54.3 °F 46.6 °F 30.4 in NNE 4 mph 9 mph 75 % 0 in
17:17 54.7 °F 46.9 °F 30.4 in NNE 3 mph 9 mph 75 % 0 in
17:22 54.7 °F 47.3 °F 30.4 in ENE 5 mph 7 mph 76 % 0 in
17:27 54.7 °F 47.3 °F 30.4 in ENE 2 mph 6 mph 76 % 0 in
17:32 54.7 °F 47.3 °F 30.4 in ENE 3 mph 6 mph 76 % 0 in
17:37 54.5 °F 47.5 °F 30.4 in NE 3 mph 6 mph 77 % 0 in
17:42 54.3 °F 47.3 °F 30.4 in NE 5 mph 5 mph 77 % 0 in
17:47 54.3 °F 47.3 °F 30.4 in East 4 mph 7 mph 77 % 0 in
17:52 54.1 °F 47.5 °F 30.4 in ENE 3 mph 7 mph 78 % 0 in
17:57 54 °F 47.7 °F 30.4 in ENE 1 mph 7 mph 79 % 0 in
18:02 54 °F 47.3 °F 30.4 in East 3 mph 7 mph 78 % 0 in
18:07 54 °F 47.3 °F 30.4 in NE 3 mph 5 mph 78 % 0 in
18:12 54 °F 47.7 °F 30.4 in NE 2 mph 5 mph 79 % 0 in
18:17 53.6 °F 47.3 °F 30.4 in ENE 1 mph 5 mph 79 % 0 in
18:27 53.2 °F 47.3 °F 30.4 in NE 1 mph 4 mph 80 % 0 in
18:32 52.9 °F 46.9 °F 30.4 in NE 2 mph 4 mph 80 % 0 in
18:42 52.3 °F 46.4 °F 30.4 in NE 3 mph 7 mph 80 % 0 in
18:47 52 °F 46.4 °F 30.4 in NE 2 mph 7 mph 81 % 0 in
18:52 51.6 °F 46 °F 30.4 in Calm   5 mph 81 % 0 in
18:57 51.4 °F 46.2 °F 30.4 in NE 1 mph 4 mph 82 % 0 in
19:02 51.3 °F 46 °F 30.4 in NE 1 mph 4 mph 82 % 0 in
19:07 51.1 °F 45.9 °F 30.4 in Calm   4 mph 82 % 0 in
19:12 50.7 °F 45.7 °F 30.4 in NE 2 mph 4 mph 83 % 0 in
19:17 50.5 °F 45.5 °F 30.4 in NE 1 mph 3 mph 83 % 0 in
19:22 50.4 °F 45.3 °F 30.4 in NE 4 mph 4 mph 83 % 0 in
19:27 50.4 °F 45.7 °F 30.4 in NE 3 mph 6 mph 84 % 0 in
19:32 50.4 °F 45.7 °F 30.4 in NE 3 mph 6 mph 84 % 0 in
19:37 50.2 °F 45.1 °F 30.4 in North 1 mph 6 mph 83 % 0 in
19:42 49.8 °F 45.1 °F 30.4 in North 1 mph 6 mph 84 % 0 in
19:47 49.5 °F 45.1 °F 30.4 in NNW 1 mph 6 mph 85 % 0 in
19:52 49.3 °F 45 °F 30.4 in North 1 mph 2 mph 85 % 0 in
19:57 48.9 °F 44.6 °F 30.4 in Calm   3 mph 85 % 0 in
20:02 48.7 °F 44.8 °F 30.4 in Calm   3 mph 86 % 0 in
20:07 48.6 °F 44.6 °F 30.4 in NNW 1 mph 3 mph 86 % 0 in
20:12 48.4 °F 44.8 °F 30.4 in ENE 2 mph 3 mph 87 % 0 in
20:17 48.4 °F 44.8 °F 30.4 in North 4 mph 4 mph 87 % 0 in
20:22 48.6 °F 44.8 °F 30.4 in NNE 9 mph 9 mph 87 % 0 in
20:27 48.7 °F 45 °F 30.4 in NE 7 mph 9 mph 87 % 0 in
20:32 48.9 °F 45 °F 30.4 in NNE 8 mph 9 mph 86 % 0 in
20:37 49.1 °F 45.1 °F 30.4 in NNE 7 mph 11 mph 86 % 0 in
20:42 49.3 °F 45.3 °F 30.4 in NNE 6 mph 12 mph 86 % 0 in
20:47 48.9 °F 45 °F 30.4 in NNE 8 mph 12 mph 86 % 0 in
20:57 48.9 °F 45.1 °F 30.4 in NE 4 mph 11 mph 87 % 0 in
21:02 48.9 °F 45.1 °F 30.4 in North 3 mph 11 mph 87 % 0 in
21:07 48.7 °F 45 °F 30.4 in NNE 4 mph 11 mph 87 % 0 in
21:12 48.4 °F 44.8 °F 30.4 in NNE 3 mph 10 mph 87 % 0 in
21:17 48.2 °F 44.8 °F 30.4 in NE 2 mph 10 mph 88 % 0 in
21:22 47.8 °F 44.4 °F 30.4 in Calm   7 mph 88 % 0 in
21:27 47.8 °F 44.8 °F 30.4 in NNE 4 mph 7 mph 89 % 0 in
21:32 48 °F 44.6 °F 30.4 in NNE 4 mph 7 mph 88 % 0 in
21:37 48 °F 44.6 °F 30.4 in NE 6 mph 10 mph 88 % 0 in
21:42 48.2 °F 44.8 °F 30.4 in NE 2 mph 10 mph 88 % 0 in
21:47 48 °F 44.6 °F 30.4 in NNE 4 mph 10 mph 88 % 0 in
21:52 48 °F 44.6 °F 30.4 in NNE 5 mph 12 mph 88 % 0 in
22:02 48.4 °F 44.8 °F 30.4 in NE 4 mph 12 mph 87 % 0 in
22:07 48.2 °F 44.6 °F 30.4 in NNE 9 mph 12 mph 87 % 0 in
22:12 48.2 °F 44.6 °F 30.4 in NE 9 mph 12 mph 87 % 0 in
22:17 48 °F 44.4 °F 30.4 in North 3 mph 11 mph 87 % 0 in
22:22 47.8 °F 44.2 °F 30.4 in NE 8 mph 11 mph 87 % 0 in
22:27 47.8 °F 44.2 °F 30.4 in NNE 5 mph 11 mph 87 % 0 in
22:32 47.7 °F 44.1 °F 30.4 in North 6 mph 10 mph 87 % 0 in
22:37 47.5 °F 44.1 °F 30.4 in NNE 7 mph 10 mph 88 % 0 in
22:42 47.5 °F 44.1 °F 30.4 in NE 5 mph 9 mph 88 % 0 in
22:47 47.1 °F 43.7 °F 30.4 in NNE 6 mph 9 mph 88 % 0 in
22:52 46.9 °F 43.5 °F 30.4 in NNE 4 mph 8 mph 88 % 0 in
22:57 46.8 °F 43.7 °F 30.4 in NNW 1 mph 8 mph 89 % 0 in
23:02 46.6 °F 43.5 °F 30.4 in North 1 mph 7 mph 89 % 0 in
23:07 46.2 °F 43.2 °F 30.4 in NNE 4 mph 6 mph 89 % 0 in
23:12 46 °F 43.3 °F 30.4 in NE 4 mph 6 mph 90 % 0 in
23:17 45.9 °F 43.2 °F 30.4 in Calm   5 mph 90 % 0 in
23:22 45.7 °F 43 °F 30.4 in NNE 2 mph 5 mph 90 % 0 in
23:32 45.3 °F 42.6 °F 30.4 in NNW 1 mph 3 mph 90 % 0 in
23:37 45.3 °F 42.6 °F 30.4 in Calm   4 mph 90 % 0 in
23:42 45.1 °F 42.4 °F 30.4 in NNW 2 mph 4 mph 90 % 0 in
23:47 45.1 °F 42.4 °F 30.4 in North 2 mph 4 mph 90 % 0 in
23:52 45 °F 42.4 °F 30.4 in Calm   3 mph 91 % 0 in
23:57 44.8 °F 42.3 °F 30.4 in Calm   3 mph 91 % 0 in
Meteo18
Compliments of Weather Underground - 4 mb

Script developed by  Jim McMurry - jmcmurry@mwt.net Adapted for the template by  Wim van der Kuil - Leuven-Template.eu

You find our weather info also at:

European Weather Network

Weather Underground

Equipment we use:

Weather-station
Davis Vue

Weather-program
Meteohub

Weather-server
Raspberry PI 2 B+

Provider
1 and 1

Davis Vue

Meteohub

Raspberry PI 2 B+

1 and 1